When you browse on this site, cookies collect data to enhance your experience and personalize the content and advertising you see.
Visit our Privacy Policy to learn more. By continuing to use the site, you agree to this use of cookies and data.
  • în România
  • Lista ţărilor
  • Pe 7 zile
  • Temperatura apei
  • Hartă satelitară
  • Meteo pe hartă
  • Widget-uri
  • user-avatar
    Intrare

    Meteo pe oră la Dumfries

    Astăzi, 18 Ianuarie, Vineri

    Timp Temperatura Precipitaţii Vânt Presiune Umiditate
    00:00 +2°C° 0 mm 1 m/s 758 mmHg 73%
    01:00 +1°C° 0 mm 1 m/s 758 mmHg 74%
    02:00 +1°C° 0 mm 1 m/s 758 mmHg 75%
    03:00 +1°C° 0 mm 1 m/s 757 mmHg 76%
    04:00 +1°C° 0 mm 1 m/s 757 mmHg 76%
    05:00 +1°C° 0 mm 1 m/s 757 mmHg 77%
    06:00 +1°C° 0 mm 1 m/s 756 mmHg 75%
    07:00 -1°C° 0 mm 2 m/s 756 mmHg 76%
    08:00 -1°C° 0 mm 2 m/s 755 mmHg 76%
    09:00 -1°C° 0 mm 2 m/s 755 mmHg 76%
    10:00 +1°C° 0 mm 2 m/s 755 mmHg 72%
    11:00 +2°C° 0 mm 2 m/s 755 mmHg 68%
    12:00 +3°C° 0 mm 2 m/s 754 mmHg 64%
    13:00 +3°C° 0 mm 2 m/s 754 mmHg 64%
    14:00 +3°C° 0 mm 2 m/s 754 mmHg 65%
    15:00 +3°C° 0 mm 2 m/s 753 mmHg 66%
    16:00 +2°C° 0.1 mm 2 m/s 753 mmHg 69%
    17:00 +2°C° 0.1 mm 2 m/s 753 mmHg 72%
    18:00 +2°C° 0.1 mm 2 m/s 752 mmHg 75%
    19:00 +2°C° 0.3 mm 2 m/s 752 mmHg 78%
    20:00 +2°C° 0.3 mm 2 m/s 752 mmHg 82%
    21:00 +2°C° 0.3 mm 2 m/s 752 mmHg 85%
    22:00 +2°C° 0.5 mm 2 m/s 752 mmHg 87%
    23:00 +2°C° 0.5 mm 2 m/s 752 mmHg 88%

    Mâine, 19 Ianuarie, Sâmbătă

    Timp Temperatura Precipitaţii Vânt Presiune Umiditate
    00:00 +2°C° 0.5 mm 2 m/s 752 mmHg 90%
    01:00 +2°C° 0.4 mm 2 m/s 752 mmHg 91%
    02:00 +2°C° 0.4 mm 2 m/s 752 mmHg 92%
    03:00 +3°C° 0.4 mm 1 m/s 752 mmHg 93%
    04:00 +3°C° 0.1 mm 1 m/s 751 mmHg 93%
    05:00 +3°C° 0.1 mm 1 m/s 751 mmHg 94%
    06:00 +3°C° 0.1 mm 1 m/s 751 mmHg 94%
    07:00 +2°C° 0 mm 1 m/s 752 mmHg 94%
    08:00 +2°C° 0 mm 1 m/s 752 mmHg 95%
    09:00 +2°C° 0 mm 1 m/s 752 mmHg 95%
    10:00 +2°C° 0 mm 1 m/s 752 mmHg 94%
    11:00 +3°C° 0 mm 1 m/s 752 mmHg 94%
    12:00 +3°C° 0 mm 1 m/s 752 mmHg 93%
    13:00 +3°C° 0 mm 1 m/s 752 mmHg 94%
    14:00 +3°C° 0 mm 1 m/s 752 mmHg 94%
    15:00 +3°C° 0 mm 1 m/s 752 mmHg 94%
    16:00 +2°C° 0 mm 1 m/s 753 mmHg 94%
    17:00 +2°C° 0 mm 1 m/s 753 mmHg 95%
    18:00 +1°C° 0 mm 1 m/s 754 mmHg 95%
    19:00 +1°C° 0 mm 1 m/s 754 mmHg 95%
    20:00 +1°C° 0 mm 1 m/s 754 mmHg 95%
    21:00 0°C° 0 mm 0 m/s 755 mmHg 95%
    22:00 0°C° 0 mm 0 m/s 755 mmHg 94%
    23:00 0°C° 0 mm 0 m/s 755 mmHg 94%

    Poimâine, 20 Ianuarie, Duminică

    Timp Temperatura Precipitaţii Vânt Presiune Umiditate
    00:00 0°C° 0 mm 0 m/s 755 mmHg 94%
    01:00 0°C° 0 mm 0 m/s 756 mmHg 94%
    02:00 0°C° 0 mm 0 m/s 756 mmHg 93%
    03:00 0°C° 0 mm 0 m/s 756 mmHg 93%
    04:00 +1°C° 0 mm 1 m/s 756 mmHg 93%
    05:00 +1°C° 0 mm 1 m/s 757 mmHg 93%
    06:00 +1°C° 0 mm 1 m/s 757 mmHg 92%
    07:00 +1°C° 0 mm 1 m/s 758 mmHg 92%
    08:00 +1°C° 0 mm 1 m/s 758 mmHg 92%
    09:00 -1°C° 0 mm 2 m/s 759 mmHg 92%
    10:00 +1°C° 0 mm 2 m/s 760 mmHg 91%
    11:00 +2°C° 0 mm 2 m/s 760 mmHg 91%
    12:00 +4°C° 0 mm 2 m/s 761 mmHg 91%
    13:00 +4°C° 0 mm 2 m/s 761 mmHg 88%
    14:00 +4°C° 0 mm 2 m/s 762 mmHg 85%
    15:00 +4°C° 0 mm 2 m/s 762 mmHg 82%
    16:00 +2°C° 0 mm 2 m/s 763 mmHg 84%
    17:00 +1°C° 0 mm 2 m/s 764 mmHg 85%
    18:00 -1°C° 0 mm 2 m/s 764 mmHg 86%
    19:00 -1°C° 0 mm 2 m/s 765 mmHg 86%
    20:00 -1°C° 0 mm 2 m/s 765 mmHg 85%
    21:00 +1°C° 0 mm 1 m/s 766 mmHg 85%
    22:00 +1°C° 0 mm 1 m/s 766 mmHg 85%
    23:00 +1°C° 0 mm 1 m/s 766 mmHg 84%

    21 Ianuarie, Luni

    Timp Temperatura Precipitaţii Vânt Presiune Umiditate
    00:00 +1°C° 0 mm 1 m/s 767 mmHg 84%
    01:00 -1°C° 0 mm 2 m/s 766 mmHg 86%
    02:00 -1°C° 0 mm 2 m/s 766 mmHg 88%
    03:00 -1°C° 0 mm 2 m/s 766 mmHg 89%
    04:00 -1°C° 0 mm 2 m/s 765 mmHg 89%
    05:00 +1°C° 0 mm 2 m/s 765 mmHg 89%
    06:00 0°C° 0 mm 3 m/s 764 mmHg 89%
    07:00 0°C° 0 mm 4 m/s 763 mmHg 88%
    08:00 0°C° 0 mm 5 m/s 762 mmHg 87%
    09:00 +1°C° 0 mm 5 m/s 761 mmHg 86%
    10:00 +1°C° 0.1 mm 6 m/s 760 mmHg 85%
    11:00 +2°C° 0.1 mm 7 m/s 759 mmHg 84%
    12:00 +1°C° 0.1 mm 8 m/s 758 mmHg 83%
    13:00 +1°C° 0.3 mm 8 m/s 755 mmHg 83%
    14:00 +1°C° 0.3 mm 9 m/s 753 mmHg 84%
    15:00 +2°C° 0.3 mm 9 m/s 751 mmHg 84%
    16:00 +2°C° 1.9 mm 8 m/s 750 mmHg 86%
    17:00 +2°C° 1.9 mm 8 m/s 749 mmHg 88%
    18:00 +3°C° 1.9 mm 7 m/s 748 mmHg 90%
    19:00 +2°C° 0.4 mm 6 m/s 748 mmHg 85%
    20:00 0°C° 0.4 mm 5 m/s 747 mmHg 79%
    21:00 -1°C° 0.4 mm 4 m/s 747 mmHg 74%
    22:00 -1°C° 0.2 mm 4 m/s 747 mmHg 77%
    23:00 -1°C° 0.2 mm 4 m/s 746 mmHg 80%

    22 Ianuarie, Marţi

    Timp Temperatura Precipitaţii Vânt Presiune Umiditate
    00:00 -1°C° 0.2 mm 4 m/s 745 mmHg 83%
    01:00 -1°C° 0.2 mm 4 m/s 744 mmHg 81%
    02:00 -1°C° 0.2 mm 4 m/s 743 mmHg 79%
    03:00 -1°C° 0.2 mm 5 m/s 742 mmHg 76%
    04:00 -1°C° 0 mm 5 m/s 742 mmHg 76%
    05:00 -1°C° 0 mm 4 m/s 742 mmHg 76%
    06:00 -1°C° 0 mm 4 m/s 741 mmHg 75%
    07:00 -1°C° 0 mm 4 m/s 742 mmHg 78%
    08:00 -1°C° 0 mm 4 m/s 742 mmHg 81%
    09:00 -1°C° 0 mm 4 m/s 742 mmHg 83%
    10:00 -1°C° 0 mm 4 m/s 742 mmHg 81%
    11:00 0°C° 0 mm 4 m/s 743 mmHg 78%
    12:00 0°C° 0 mm 4 m/s 743 mmHg 75%
    13:00 0°C° 0 mm 4 m/s 743 mmHg 76%
    14:00 0°C° 0 mm 4 m/s 743 mmHg 77%
    15:00 -1°C° 0 mm 4 m/s 743 mmHg 78%
    16:00 -1°C° 0 mm 4 m/s 743 mmHg 79%
    17:00 -1°C° 0 mm 3 m/s 743 mmHg 81%
    18:00 -2°C° 0 mm 3 m/s 743 mmHg 83%
    19:00 -1°C° 0 mm 3 m/s 742 mmHg 83%
    20:00 -1°C° 0 mm 3 m/s 742 mmHg 84%
    21:00 -1°C° 0 mm 3 m/s 742 mmHg 84%
    22:00 -1°C° 0 mm 3 m/s 742 mmHg 85%
    23:00 -1°C° 0 mm 3 m/s 741 mmHg 85%

    23 Ianuarie, Miercuri

    Timp Temperatura Precipitaţii Vânt Presiune Umiditate
    00:00 -1°C° 0 mm 3 m/s 741 mmHg 85%
    01:00 -1°C° 0 mm 3 m/s 741 mmHg 85%
    02:00 -1°C° 0 mm 3 m/s 740 mmHg 86%
    03:00 -1°C° 0 mm 3 m/s 740 mmHg 87%
    04:00 -1°C° 0 mm 3 m/s 740 mmHg 85%
    05:00 -1°C° 0 mm 3 m/s 739 mmHg 83%
    06:00 -1°C° 0 mm 3 m/s 739 mmHg 82%
    07:00 -1°C° 0 mm 3 m/s 740 mmHg 81%
    08:00 -2°C° 0 mm 4 m/s 741 mmHg 81%
    09:00 -2°C° 0 mm 4 m/s 742 mmHg 80%
    10:00 -1°C° 0 mm 4 m/s 743 mmHg 76%
    11:00 0°C° 0 mm 5 m/s 744 mmHg 72%
    12:00 +1°C° 0 mm 5 m/s 745 mmHg 68%
    13:00 +1°C° 0 mm 5 m/s 745 mmHg 71%
    14:00 +1°C° 0 mm 4 m/s 746 mmHg 73%
    15:00 +1°C° 0 mm 4 m/s 746 mmHg 75%
    16:00 +1°C° 0 mm 4 m/s 747 mmHg 78%
    17:00 0°C° 0 mm 4 m/s 747 mmHg 81%
    18:00 0°C° 0 mm 4 m/s 748 mmHg 84%
    19:00 0°C° 0 mm 4 m/s 749 mmHg 84%
    20:00 0°C° 0 mm 4 m/s 750 mmHg 84%
    21:00 0°C° 0 mm 4 m/s 751 mmHg 84%
    22:00 0°C° 0 mm 4 m/s 752 mmHg 83%
    23:00 0°C° 0 mm 4 m/s 752 mmHg 82%
    Arată mai mult